Regional Weather Roundup
Issued by NWS Huntsville, AL

Home | Current Version | Previous Version | Text Only | Print | Product List | Glossary On
Versions: 1 2 3 4 5 6 7 8 9 10 11 12 13 14 15 16 17 18 19 20 21 22 23 24 25 26 27 28 29 30 31 32 33 34 35 36 37 38 39 40 41 42 43 44 45 46 47 48 49 50
000
ASUS44 KHUN 291224
RWRHUN

WEATHER ROUNDUP FOR THE TENNESSEE VALLEY
NATIONAL WEATHER SERVICE HUNTSVILLE AL
700 AM CDT TUE JUL 29 2014

ALZ001>004-291300-
NORTHWEST ALABAMA

CITY           SKY/WX    TMP DP  RH WIND       PRES   REMARKS
COURTLAND HCN    N/A     64 N/A N/A CALM        N/A
RUSSELLVILLE     N/A     61 N/A N/A MISG        N/A
SHOALS AIRPORT SUNNY     67  59  75 N3        30.07R
6HR MIN TEMP:  65; 6HR MAX TEMP:  69;

SHOALS TVA RES   N/A     64 N/A N/A MISG        N/A
$$

ALZ005>007-016-291300-
NORTH CENTRAL ALABAMA

CITY           SKY/WX    TMP DP  RH WIND       PRES   REMARKS
CULLMAN AG STN   N/A     63 N/A N/A CALM        N/A
DECATUR AP     SUNNY     64  62  93 N6        30.05R
6HR MIN TEMP:  61; 6HR MAX TEMP:  67;

HUNTSVILLE AP  MOSUNNY   65  60  84 CALM      30.04R
6HR MIN TEMP:  63; 6HR MAX TEMP:  69;

HUN NWS/UAH      N/A     67  56  69 N8          N/A
MERIDIANVILLE  SUNNY     63  55  77 N7        30.06R
VINEMONT AP      N/A     63  62  96 CALM      30.07R
$$

ALZ008>010-291300-
NORTHEAST ALABAMA

CITY           SKY/WX    TMP DP  RH WIND       PRES   REMARKS
ALBERTVILLE    SUNNY     64  63  94 N5        30.03R
CROSSVILLE       N/A     64 N/A N/A CALM        N/A
FORT PAYNE     SUNNY     63  59  88 CALM      30.03R
SCOTTSBORO AP  SUNNY     66  59  77 CALM      30.05R
SCOTTSBORO HCN   N/A     61 N/A N/A MISG        N/A
VALLEY HEAD      N/A     57 N/A N/A MISG        N/A
$$

TNZ076-096-097-291300-
SOUTHEASTERN MIDDLE TENNESSEE

CITY           SKY/WX    TMP DP  RH WIND       PRES   REMARKS
FAYETTEVILLE   SUNNY     63  55  77 N14G26    30.06R
TULLAHOMA      SUNNY     61  55  82 N7        30.07R
WINCHESTER     SUNNY     63  59  88 N3        30.06R
$$

...SURROUNDING SITES...

CITY           SKY/WX    TMP DP  RH WIND       PRES   REMARKS
ATLANTA        SUNNY     68  61  78 NW7       29.99S
ANNISTON       SUNNY     65  62  90 CALM      30.02R
BIRMINGHAM     SUNNY     67  62  84 CALM      30.04S
CHATTANOOGA    MOSUNNY   67  59  75 NW6       30.02R
CORINTH        FAIR      64  59  82 N3        30.09R
DALTON         SUNNY     64  63  94 CALM      30.01R
GADSDEN        SUNNY     66  61  82 CALM      30.03R
GOLDEN TRNGL   MOSUNNY   66  63  88 N6        30.06R
HALEYVILLE     FAIR      62  62 100 CALM      30.09R
JACKSON TN     SUNNY     63  57  81 N5        30.11R
LEWISBURG      FAIR      61  56  83 N3        30.06R
MEMPHIS        PTCLDY    69  58  67 N8        30.11R
MURFREESBORO   FAIR      62  55  77 NW6       30.06R
NASHVILLE      MOSUNNY   62  51  67 N9        30.08R
OXFORD MS      FAIR      66  61  82 CALM      30.11R
ROME           SUNNY     66  62  87 MISG      30.00S
SAVANNAH       MOSUNNY   63  63 100 N6        30.10R
TUPELO         MOSUNNY   67  62  84 N3        30.07R
TUSCALOOSA     SUNNY     69  63  81 N5        30.03R
$$

...GULF COAST WEATHER...

CITY           SKY/WX    TMP DP  RH WIND       PRES   REMARKS
GULFPORT       PTCLDY    76  66  71 N8        30.03R
PASCAGOULA     PTCLDY    72  68  87 N6        30.03R
MOBILE         PTCLDY    70  68  93 NW3       30.04R
GULF SHORES      N/A     73  68  84 N3        30.01R
PENSACOLA      PTSUNNY   72  70  93 NW6       30.00R
DESTIN         CLOUDY    77  69  76 N5        29.98R
PANAMA CITY    MOSUNNY   77  71  82 N6        29.98R
APPALACHICOLA  PTSUNNY   75  73  93 N6        29.94R
$$



USA.gov is the U.S. government's official web portal to all federal, state and local government web resources and services.